This is the latest recevied weather packets stored in our database for station/object SA7AHC. If no packets are shown the sender has not sent any weather packets the latest 10 day(s).
| Time | Temp. | Humidity | Pressure | Rain* | Wind** | Luminosity | Snow |
|---|---|---|---|---|---|---|---|
| 1778231586 | 14.44° C | 25% | 1026 hPa | 0 mm | - | 724 W/m² | - |
| 1778230986 | 13.89° C | 26% | 1025.9 hPa | 0 mm | - | 714 W/m² | - |
| 1778230387 | 13.33° C | 29% | 1025.9 hPa | 0 mm | - | 698 W/m² | - |
| 1778229788 | 13.33° C | 29% | 1025.8 hPa | 0 mm | - | 684 W/m² | - |
| 1778229187 | 12.78° C | 33% | 1025.8 hPa | 0 mm | - | 668 W/m² | - |
| 1778228590 | 12.22° C | 33% | 1025.8 hPa | 0 mm | - | 650 W/m² | - |
| 1778227984 | 12.22° C | 32% | 1025.9 hPa | 0 mm | - | 629 W/m² | - |
| 1778227383 | 12.22° C | 32% | 1025.7 hPa | 0 mm | - | 612 W/m² | - |
| 1778226785 | 11.67° C | 38% | 1025.7 hPa | 0 mm | - | 591 W/m² | - |
| 1778226181 | 11.67° C | 37% | 1025.6 hPa | 0 mm | - | 571 W/m² | - |
| 1778225579 | 11.11° C | 39% | 1025.5 hPa | 0 mm | - | 550 W/m² | - |
| 1778224978 | 11.11° C | 42% | 1025.5 hPa | 0 mm | - | 529 W/m² | - |
| 1778224390 | 10.56° C | 41% | 1025.4 hPa | 0 mm | - | 506 W/m² | - |
| 1778223774 | 10° C | 40% | 1025 hPa | 0 mm | - | 482 W/m² | - |
| 1778223180 | 10° C | 39% | 1025 hPa | 0 mm | - | 459 W/m² | - |
| 1778222574 | 9.44° C | 39% | 1025 hPa | 0 mm | - | 436 W/m² | - |
| 1778221976 | 8.89° C | 40% | 1024.8 hPa | 0 mm | - | 413 W/m² | - |
| 1778221376 | 8.33° C | 37% | 1024.6 hPa | 0 mm | - | 388 W/m² | - |
| 1778220774 | 7.78° C | 37% | 1024.6 hPa | 0 mm | - | 366 W/m² | - |
| 1778220173 | 7.78° C | 33% | 1024.3 hPa | 0 mm | - | 285 W/m² | - |
| 1778219577 | 7.22° C | 34% | 1024.3 hPa | 0 mm | - | 195 W/m² | - |
| 1778218968 | 6.67° C | 35% | 1024.2 hPa | 0 mm | - | 33 W/m² | - |
| 1778218363 | 6.67° C | 39% | 1024 hPa | 0 mm | - | 32 W/m² | - |
| 1778217765 | 6.11° C | 40% | 1024 hPa | 0 mm | - | 32 W/m² | - |
| 1778217162 | 5.56° C | 41% | 1023.9 hPa | 0 mm | - | 30 W/m² | - |
* Rain latest hour (hover to see other rain measurements)
** Current wind speed in m/s (hover to see current wind gust speed)